Wind_Speed
43 44 44 44 45 45 46 46 47 47 47 48 49 49 50 51 51 51 52 52 52 52 52 52 52 51 51 52 52 52 52 51 50 49 48 48 47 46
43 44 44 44 45 45 46 46 47 47 46 46 48 49 50 51 51 51 51 52 53 53 53 53 53 53 52 52 52 52 52 52 52 52 51 49 49 49
43 44 44 44 45 45 46 47 48 47 47 46 48 49 49 50 50 50 50 51 52 52 52 52 53 53 53 52 52 52 53 54 54 53 52 51 51 51
43 43 44 44 44 45 46 48 47 47 47 47 48 49 50 50 50 50 50 50 51 51 52 52 52 53 54 54 53 53 54 54 54 54 54 54 53 52
43 43 43 43 44 45 46 46 46 47 47 48 48 49 50 51 50 50 50 50 50 51 52 53 53 52 53 54 53 54 55 55 56 56 56 55 55 53
42 42 43 44 44 44 44 45 45 46 46 47 47 47 48 49 49 49 49 49 49 50 51 52 52 53 53 54 53 53 54 55 57 56 54 54 54 54
41 42 42 42 42 42 43 43 44 44 45 45 46 46 47 48 48 48 48 48 48 49 49 51 51 52 53 53 54 54 55 55 56 56 55 55 55 55
39 40 39 40 41 41 42 42 43 43 44 44 43 44 44 44 45 46 46 47 48 49 50 51 52 51 52 53 53 54 54 56 56 57 56 57 57 57
38 38 38 39 39 40 40 40 41 42 43 42 42 42 42 43 44 44 44 45 47 48 49 49 50 50 52 53 54 54 55 55 55 56 56 56 57 57
36 36 36 36 37 37 38 39 40 40 41 42 42 42 42 42 43 43 43 44 45 46 47 48 50 51 52 53 53 53 54 54 55 55 56 56 57 57
34 34 34 35 35 36 37 37 38 39 40 41 41 42 41 41 41 42 42 42 43 44 45 47 47 48 49 50 51 52 53 54 55 55 55 56 57 56
33 33 33 33 34 35 36 36 37 38 39 40 40 41 40 40 40 40 41 41 42 43 44 46 46 47 47 47 49 50 50 51 53 54 54 54 55 55
32 32 33 33 34 35 36 37 37 37 38 38 39 39 39 39 40 40 41 41 41 42 43 45 46 47 47 46 47 48 50 51 51 52 52 52 53 53
32 32 32 33 34 35 36 36 36 37 37 37 37 37 37 37 38 39 40 41 42 43 43 45 46 47 47 46 46 47 49 50 50 50 51 51 52 52
32 32 33 33 34 34 34 34 34 35 35 35 35 35 36 37 38 38 39 40 41 42 43 44 45 45 46 46 46 46 46 46 46 47 48 50 50 51
32 32 32 32 32 33 33 33 33 33 33 34 34 35 36 37 38 38 39 40 41 41 43 44 44 45 45 45 45 45 45 45 45 46 47 48 49 49
31 31 31 31 32 32 31 31 32 32 33 33 34 35 35 36 38 38 39 40 41 42 43 44 44 44 45 45 45 45 46 45 46 46 46 46 47 48
31 31 31 31 31 31 31 31 32 32 32 33 34 34 35 36 38 39 39 40 41 41 42 43 43 43 44 44 45 46 46 46 46 46 45 45 45 47
31 31 31 31 31 31 31 32 32 33 33 34 34 35 36 37 38 39 39 40 41 41 42 43 44 44 43 43 44 46 46 45 45 45 45 45 44 45
31 32 32 32 31 31 32 32 32 33 33 34 35 36 36 37 38 39 39 40 41 41 42 43 43 43 44 44 43 43 45 44 43 43 43 44 43 43
31 32 31 31 31 31 32 32 32 33 34 34 35 36 37 37 38 39 39 40 40 41 41 41 42 42 43 43 42 41 42 43 43 42 41 41 41 41
31 30 31 31 32 32 32 32 33 33 34 35 36 37 37 38 38 39 39 39 40 39 39 39 40 40 40 40 40 39 39 40 41 41 40 39 39 39
31 31 31 32 32 32 31 32 32 33 34 35 36 36 37 37 38 38 38 38 38 38 38 38 38 38 38 39 39 38 38 38 38 38 38 38 37 37
Wind_Direction
268 267 267 267 268 267 266 265 263 262 260 259 259 260 261 261 262 262 262 262 264 263 263 262 264 264 264 265 265 265 265 266 267 267 268 269 268 268
268 268 267 267 268 267 266 265 264 263 261 260 259 260 261 261 262 262 262 263 263 263 263 263 263 264 265 265 265 265 264 265 266 267 268 269 268 268
269 268 268 268 269 267 266 265 264 263 262 261 260 260 261 261 262 262 262 263 263 263 263 263 263 264 265 265 266 265 264 264 265 266 267 268 268 268
268 268 269 269 269 268 267 265 264 263 262 262 261 262 262 263 263 263 263 263 263 263 263 263 264 264 264 265 265 265 264 264 265 265 266 267 267 267
268 268 268 268 269 269 267 266 264 263 263 263 263 263 263 263 263 263 263 263 264 263 263 262 263 263 264 264 265 265 265 265 265 265 265 266 266 266
268 269 269 269 269 269 267 265 264 264 264 264 264 264 263 263 263 263 262 263 263 263 263 263 263 264 264 264 265 265 266 266 265 265 265 266 266 265
270 271 271 270 269 269 267 266 265 264 264 265 265 264 264 263 263 264 264 264 265 264 265 264 264 265 266 266 267 266 267 267 266 266 267 267 267 267
272 271 271 271 269 269 268 266 264 264 264 265 266 266 264 263 263 265 265 265 266 265 266 266 266 266 267 267 268 268 268 267 267 267 268 267 266 266
274 273 273 272 271 270 269 266 265 265 265 265 266 266 265 264 265 266 268 268 268 267 267 268 268 268 268 269 270 270 269 268 268 267 267 267 266 266
275 274 274 273 273 271 269 268 267 266 266 266 266 266 266 266 266 267 268 269 269 268 268 268 269 270 271 271 272 271 270 270 269 268 268 267 267 266
276 276 275 274 273 273 271 269 268 267 267 267 266 266 266 266 267 268 268 269 270 270 269 270 270 271 271 272 272 271 271 271 270 270 269 268 267 267
277 277 276 275 274 274 273 271 270 269 268 268 268 267 266 267 268 269 270 271 272 271 272 272 272 273 272 272 272 273 272 272 271 270 269 268 267 267
277 277 276 276 275 276 275 273 271 270 269 269 268 267 266 267 269 270 272 273 274 274 275 275 275 274 274 273 273 273 273 273 272 271 270 269 268 266
279 279 278 277 277 278 277 275 272 271 270 269 268 267 267 268 270 272 274 275 276 277 278 278 277 276 275 275 275 275 275 274 272 271 270 270 269 267
280 280 280 280 280 280 279 277 274 273 271 269 269 268 268 269 270 273 275 277 278 279 280 280 280 278 277 277 277 276 276 274 273 272 272 271 269 268
280 280 282 282 283 282 279 277 276 275 273 270 269 269 270 271 273 274 276 278 279 280 282 282 281 280 279 279 279 278 277 276 274 273 273 271 269 268
280 282 283 284 283 281 279 278 277 276 274 273 271 270 271 273 275 277 278 280 281 281 281 282 282 281 281 281 280 279 279 278 277 276 274 270 269 268
282 283 285 285 284 281 279 279 278 276 275 274 273 272 273 275 277 278 280 281 282 283 283 282 281 281 281 282 282 281 280 279 278 277 276 272 269 268
283 284 284 285 284 282 280 279 278 277 276 275 276 275 275 276 277 280 281 282 283 284 284 283 282 281 281 281 282 282 281 279 277 277 276 273 270 268
284 284 284 285 285 283 281 280 280 279 278 277 277 278 278 279 280 281 283 284 286 286 285 284 283 282 282 282 283 282 281 280 277 277 276 273 270 269
285 285 285 285 285 284 283 281 281 280 280 279 279 280 280 281 282 283 285 286 287 287 287 286 285 284 285 285 284 283 282 281 279 278 277 273 270 269
285 285 286 287 287 286 284 283 281 281 281 281 281 281 281 282 283 284 286 287 288 289 288 288 287 286 286 286 286 285 283 282 281 279 278 276 272 269
284 285 286 287 287 286 286 285 282 282 282 283 283 283 283 283 284 286 287 288 289 290 289 289 288 287 287 287 287 286 284 283 282 280 278 277 275 270
Height
5676 5676 5676 5677 5677 5677 5678 5678 5680 5682 5684 5685 5686 5686 5687 5689 5690 5690 5691 5692 5693 5694 5695 5696 5697 5698 5698 5699 5700 5701 5701 5702 5703 5703 5703 5703 5703 5704
5664 5664 5664 5665 5665 5665 5665 5666 5667 5668 5671 5673 5673 5674 5674 5675 5676 5677 5678 5678 5679 5680 5681 5682 5683 5684 5685 5685 5686 5687 5687 5688 5689 5690 5690 5690 5690 5691
5652 5652 5652 5652 5652 5652 5652 5653 5654 5654 5657 5659 5660 5660 5660 5661 5662 5663 5664 5664 5665 5666 5667 5668 5669 5669 5670 5671 5672 5673 5673 5674 5675 5676 5676 5677 5677 5678
5640 5640 5640 5640 5640 5639 5639 5640 5640 5641 5643 5645 5646 5647 5647 5648 5648 5649 5649 5650 5651 5651 5652 5653 5654 5655 5655 5656 5657 5658 5658 5659 5660 5661 5662 5663 5663 5664
5628 5628 5628 5627 5627 5626 5626 5626 5627 5628 5629 5631 5632 5633 5633 5634 5634 5635 5635 5635 5636 5636 5637 5638 5638 5639 5640 5641 5641 5642 5643 5644 5645 5646 5646 5647 5648 5649
5615 5615 5615 5614 5614 5613 5613 5613 5614 5615 5616 5617 5618 5618 5619 5619 5620 5621 5621 5621 5621 5621 5622 5622 5623 5623 5624 5625 5626 5627 5627 5627 5628 5629 5630 5631 5632 5633
5603 5602 5601 5601 5600 5600 5600 5600 5601 5602 5602 5603 5604 5604 5604 5605 5606 5607 5607 5607 5607 5607 5607 5607 5608 5609 5609 5609 5609 5610 5611 5611 5612 5612 5613 5614 5615 5616
5590 5589 5589 5588 5588 5587 5587 5587 5588 5589 5589 5590 5590 5590 5591 5591 5592 5592 5593 5593 5594 5594 5593 5593 5592 5593 5593 5593 5593 5593 5594 5594 5594 5595 5596 5596 5597 5598
5578 5577 5577 5576 5575 5574 5574 5574 5575 5575 5576 5577 5577 5577 5578 5578 5579 5579 5579 5579 5579 5579 5579 5579 5578 5578 5578 5577 5577 5577 5577 5577 5577 5577 5578 5578 5579 5580
5567 5566 5565 5564 5563 5563 5562 5562 5562 5562 5563 5564 5564 5564 5564 5564 5565 5565 5565 5565 5565 5564 5564 5565 5564 5563 5562 5561 5560 5560 5560 5560 5560 5560 5559 5560 5560 5561
5556 5554 5553 5553 5552 5551 5551 5550 5550 5550 5550 5550 5550 5550 5551 5551 5551 5551 5551 5551 5551 5551 5550 5550 5550 5549 5548 5546 5544 5543 5542 5542 5542 5542 5542 5542 5542 5543
5545 5544 5542 5541 5540 5539 5539 5538 5538 5538 5538 5537 5537 5537 5537 5538 5538 5538 5538 5538 5537 5537 5536 5535 5534 5533 5534 5533 5529 5527 5526 5525 5525 5524 5524 5524 5524 5524
5535 5534 5532 5531 5530 5528 5527 5527 5526 5526 5525 5525 5525 5525 5525 5525 5525 5525 5525 5524 5524 5523 5522 5521 5520 5518 5517 5518 5516 5513 5511 5509 5508 5508 5507 5506 5506 5506
5525 5524 5522 5520 5519 5517 5516 5515 5514 5513 5513 5513 5513 5513 5513 5513 5513 5513 5512 5511 5510 5509 5508 5506 5505 5503 5502 5501 5501 5498 5495 5493 5492 5491 5490 5490 5489 5489
5515 5514 5512 5510 5508 5506 5505 5503 5502 5501 5501 5501 5501 5502 5502 5502 5501 5501 5500 5498 5497 5495 5493 5491 5490 5488 5487 5486 5484 5482 5481 5479 5476 5475 5475 5474 5473 5473
5505 5503 5501 5499 5498 5496 5494 5493 5491 5490 5490 5490 5490 5490 5490 5490 5489 5488 5487 5486 5484 5482 5480 5477 5475 5474 5472 5470 5468 5466 5465 5464 5462 5461 5460 5458 5457 5456
5495 5494 5492 5490 5487 5485 5484 5482 5481 5480 5479 5479 5479 5479 5479 5478 5477 5476 5475 5473 5472 5470 5467 5464 5461 5459 5457 5455 5453 5451 5449 5448 5446 5445 5444 5443 5441 5441
5486 5484 5482 5480 5477 5475 5474 5472 5471 5470 5469 5469 5468 5468 5467 5466 5466 5464 5462 5461 5459 5456 5453 5451 5448 5446 5444 5441 5439 5436 5434 5432 5431 5429 5427 5427 5427 5425
5476 5474 5472 5470 5467 5465 5464 5462 5461 5460 5459 5458 5458 5457 5456 5454 5453 5452 5450 5448 5446 5443 5440 5437 5434 5432 5430 5429 5426 5421 5419 5417 5415 5413 5411 5410 5410 5410
5466 5464 5462 5459 5457 5455 5453 5452 5451 5450 5449 5448 5447 5445 5444 5443 5441 5439 5437 5435 5433 5430 5426 5423 5420 5418 5415 5414 5412 5408 5403 5401 5400 5398 5397 5395 5395 5394
5456 5454 5452 5449 5447 5445 5443 5442 5440 5439 5438 5437 5435 5434 5432 5431 5429 5427 5425 5422 5419 5416 5413 5410 5406 5404 5401 5398 5396 5394 5390 5386 5384 5383 5382 5380 5380 5380
5445 5443 5442 5440 5437 5435 5434 5432 5430 5428 5427 5426 5424 5422 5421 5419 5417 5415 5412 5409 5406 5403 5400 5397 5393 5390 5387 5385 5382 5380 5377 5374 5370 5368 5366 5365 5364 5365
5435 5434 5432 5430 5428 5426 5424 5422 5420 5418 5416 5415 5413 5411 5409 5407 5405 5402 5400 5397 5394 5391 5388 5385 5381 5378 5375 5372 5369 5367 5364 5361 5359 5357 5354 5352 5351 5351